User: anonymous   Login
Location: Unspecified
(40.7945°N, 111.1337°W)
Time: 15:16:33
(UTC-06:00)
Language:

Okean 3 - Orbit

View from above orbital plane
View from above orbital plane
View from above satellite
View from above satellite

Ground track
Ground track

The orbit data is extracted from the following two-line orbital elements,

1 21397U 91039A   20215.76114327 +.00000187 +00000-0 +15477-4 0  9999
2 21397 082.5233 132.6871 0018438 019.5105 340.6816 14.92943207559176
Epoch (UTC): 02 August 2020 18:16:02
Eccentricity: 0.0018438
inclination: 82.5233°
perigee height: 576 km
apogee height: 601 km
right ascension of ascending node: 132.6871°
argument of perigee: 19.5105°
revolutions per day: 14.92943207
mean anomaly at epoch: 340.6816°
orbit number at epoch: 55917

The dashed part of the orbit path shows where the satellite is in the earth's shadow,  

DLR